Tracking 19831 objects as of 23-Aug-2019
HD Live streaming from Space Station
objects crossing your sky now

NAVSTAR 17 (USA 49)

Track NAVSTAR 17 (USA 49) now!
NAVSTAR 17 (USA 49) is classified as:


NORAD ID: 20361
Int'l Code: 1989-097A
Perigee: 21,184.4 km
Apogee: 21,305.5 km
Inclination: 54.6 °
Period: 761.2 minutes
Semi major axis: 27615 km
RCS: 2.5118 m2 (large)
Launch date: December 11, 1989
Source: United States (US)
Launch site: AIR FORCE EASTERN TEST RANGE (AFETR)
aabbcc
Your satellite tracking list
Your tracking list is empty




NASA's NSSDC Master Catalog

Two Line Element Set (TLE):
1 20361U 89097A   19233.98409138 -.00000023  00000-0  00000+0 0  9990
2 20361  54.5845  98.4759 0021919 283.0139 261.0622  1.89174446202215
Source of the keplerian elements: AFSPC